Time,TemperatureF,DewpointF,PressureIn,WindDirection,WindDirectionDegrees,WindSpeedMPH,WindSpeedGustMPH,Humidity,HourlyPrecipIn,Conditions,Clouds,dailyrainin,SoftwareType,DateUTC
2013-08-27 00:18:00,72.0,69.0,30.00,SE,142,0.0,2.0,89,0.00,,,0.00,,2013-08-27 04:18:00,
2013-08-27 00:47:00,71.0,68.0,30.00,SE,142,0.0,0.0,90,0.00,,,0.00,,2013-08-27 04:47:00,
2013-08-27 00:54:00,71.0,68.0,30.01,SE,142,0.0,0.0,90,0.00,,,0.00,,2013-08-27 04:54:00,
2013-08-27 01:13:00,70.0,67.0,30.00,SE,142,0.0,0.0,89,0.00,,,0.00,,2013-08-27 05:13:00,
2013-08-27 01:23:00,70.0,67.0,29.99,SE,142,0.0,0.0,90,0.00,,,0.00,,2013-08-27 05:23:00,
2013-08-27 01:43:00,70.0,67.0,29.99,SE,142,0.0,1.0,91,0.00,,,0.00,,2013-08-27 05:43:00,
2013-08-27 01:52:00,70.0,67.0,29.99,SE,142,0.0,1.0,90,0.00,,,0.00,,2013-08-27 05:52:00,
2013-08-27 02:12:00,69.0,66.0,29.98,SE,142,0.0,1.0,90,0.00,,,0.00,,2013-08-27 06:12:00,
2013-08-27 02:22:00,70.0,67.0,29.98,SE,142,1.0,3.0,91,0.00,,,0.00,,2013-08-27 06:22:00,
2013-08-27 02:42:00,71.0,68.0,29.98,SE,141,1.0,3.0,89,0.00,,,0.00,,2013-08-27 06:42:00,
2013-08-27 02:52:00,72.0,68.0,29.98,SE,130,0.0,3.0,88,0.00,,,0.00,,2013-08-27 06:52:00,
2013-08-27 03:12:00,72.0,68.0,29.98,SE,130,1.0,4.0,88,0.00,,,0.00,,2013-08-27 07:12:00,
2013-08-27 03:21:00,72.0,68.0,29.97,South,175,1.0,4.0,88,0.00,,,0.00,,2013-08-27 07:21:00,
2013-08-27 03:32:00,72.0,68.0,29.97,South,175,1.0,4.0,88,0.00,,,0.00,,2013-08-27 07:32:00,
2013-08-27 03:42:00,72.0,68.0,29.97,South,175,1.0,4.0,88,0.00,,,0.00,,2013-08-27 07:42:00,
2013-08-27 03:52:00,72.0,68.0,29.97,SE,129,1.0,3.0,88,0.00,,,0.00,,2013-08-27 07:52:00,
2013-08-27 04:11:00,72.0,68.0,29.96,SE,129,0.0,2.0,88,0.00,,,0.00,,2013-08-27 08:11:00,
2013-08-27 04:22:00,72.0,69.0,29.96,SE,129,0.0,2.0,89,0.00,,,0.00,,2013-08-27 08:22:00,
2013-08-27 04:42:00,71.0,68.0,29.96,SE,129,0.0,2.0,90,0.00,,,0.00,,2013-08-27 08:42:00,
2013-08-27 04:52:00,71.0,68.0,29.96,SE,129,0.0,2.0,90,0.00,,,0.00,,2013-08-27 08:52:00,
2013-08-27 05:11:00,71.0,68.0,29.95,SE,129,0.0,2.0,90,0.00,,,0.00,,2013-08-27 09:11:00,
2013-08-27 05:21:00,70.0,68.0,29.95,SE,129,0.0,2.0,92,0.00,,,0.00,,2013-08-27 09:21:00,
2013-08-27 05:43:00,70.0,68.0,29.95,SE,129,0.0,1.0,92,0.00,,,0.00,,2013-08-27 09:43:00,
2013-08-27 05:54:00,69.0,67.0,29.95,SE,129,0.0,1.0,93,0.00,,,0.00,,2013-08-27 09:54:00,
2013-08-27 06:14:00,69.0,67.0,29.95,SE,129,0.0,1.0,93,0.00,,,0.00,,2013-08-27 10:14:00,
2013-08-27 06:25:00,69.0,67.0,29.94,SE,129,0.0,1.0,93,0.00,,,0.00,,2013-08-27 10:25:00,
2013-08-27 06:43:00,69.0,67.0,29.94,SE,129,0.0,1.0,93,0.00,,,0.00,,2013-08-27 10:43:00,
2013-08-27 06:53:00,69.0,67.0,29.94,SE,129,0.0,1.0,93,0.00,,,0.00,,2013-08-27 10:53:00,
2013-08-27 07:12:00,69.0,67.0,29.95,SE,129,0.0,0.0,94,0.00,,,0.00,,2013-08-27 11:12:00,
2013-08-27 07:22:00,69.0,67.0,29.96,SE,129,0.0,0.0,94,0.00,,,0.00,,2013-08-27 11:22:00,
2013-08-27 07:42:00,69.0,67.0,29.96,SE,129,0.0,0.0,94,0.00,,,0.00,,2013-08-27 11:42:00,
2013-08-27 07:52:00,69.0,67.0,29.96,SE,129,0.0,0.0,94,0.00,,,0.00,,2013-08-27 11:52:00,
2013-08-27 08:12:00,69.0,67.0,29.96,SE,129,0.0,0.0,94,0.00,,,0.00,,2013-08-27 12:12:00,
2013-08-27 08:21:00,69.0,67.0,29.96,SE,129,0.0,1.0,94,0.00,,,0.00,,2013-08-27 12:21:00,
2013-08-27 08:42:00,69.0,67.0,29.97,SE,129,0.0,0.0,94,0.00,,,0.00,,2013-08-27 12:42:00,
2013-08-27 08:52:00,70.0,68.0,29.97,SE,129,0.0,0.0,95,0.00,,,0.00,,2013-08-27 12:52:00,
2013-08-27 09:11:00,70.0,68.0,29.97,SE,129,0.0,0.0,94,0.00,,,0.00,,2013-08-27 13:11:00,
2013-08-27 09:22:00,71.0,69.0,29.96,SE,129,0.0,1.0,94,0.00,,,0.00,,2013-08-27 13:22:00,
2013-08-27 09:42:00,71.0,69.0,29.96,SE,129,0.0,2.0,94,0.00,,,0.00,,2013-08-27 13:42:00,
2013-08-27 09:52:00,72.0,70.0,29.98,North,5,0.0,5.0,93,0.00,,,0.00,,2013-08-27 13:52:00,
2013-08-27 10:11:00,74.0,71.0,29.97,South,175,0.0,1.0,90,0.00,,,0.00,,2013-08-27 14:11:00,
2013-08-27 10:22:00,76.0,72.0,29.96,South,175,0.0,1.0,87,0.00,,,0.00,,2013-08-27 14:22:00,
2013-08-27 10:42:00,77.0,72.0,29.95,SE,135,0.0,3.0,85,0.00,,,0.00,,2013-08-27 14:42:00,
2013-08-27 10:53:00,78.0,72.0,29.96,SE,130,0.0,3.0,82,0.00,,,0.00,,2013-08-27 14:53:00,
2013-08-27 11:11:00,79.0,73.0,29.96,West,259,1.0,3.0,81,0.00,,,0.00,,2013-08-27 15:11:00,
2013-08-27 11:22:00,81.0,74.0,29.96,SSE,147,0.0,5.0,79,0.00,,,0.00,,2013-08-27 15:22:00,
2013-08-27 11:45:00,82.0,74.0,29.96,NW,323,1.0,6.0,77,0.00,,,0.00,,2013-08-27 15:45:00,
2013-08-27 11:58:00,82.0,74.0,29.96,NNW,337,0.0,3.0,78,0.00,,,0.00,,2013-08-27 15:58:00,
2013-08-27 12:17:00,82.0,74.0,29.95,NNW,342,1.0,4.0,77,0.00,,,0.00,,2013-08-27 16:17:00,
2013-08-27 12:28:00,83.0,75.0,29.95,NW,310,0.0,3.0,76,0.00,,,0.00,,2013-08-27 16:28:00,
2013-08-27 12:46:00,83.0,74.0,29.95,NNW,336,0.0,5.0,74,0.00,,,0.00,,2013-08-27 16:46:00,
2013-08-27 12:55:00,84.0,74.0,29.95,NNW,340,0.0,3.0,73,0.00,,,0.00,,2013-08-27 16:55:00,
2013-08-27 13:13:00,84.0,73.0,29.94,SSW,211,1.0,4.0,69,0.00,,,0.00,,2013-08-27 17:13:00,
2013-08-27 13:23:00,85.0,75.0,29.94,WNW,292,0.0,5.0,71,0.00,,,0.00,,2013-08-27 17:23:00,
2013-08-27 13:43:00,87.0,75.0,29.94,NNW,338,1.0,5.0,67,0.00,,,0.00,,2013-08-27 17:43:00,
2013-08-27 13:52:00,87.0,75.0,29.93,NW,306,1.0,5.0,68,0.00,,,0.00,,2013-08-27 17:52:00,
2013-08-27 14:12:00,88.0,75.0,29.93,ESE,113,0.0,4.0,66,0.00,,,0.00,,2013-08-27 18:12:00,
2013-08-27 14:22:00,88.0,74.0,29.93,SE,130,0.0,3.0,64,0.00,,,0.00,,2013-08-27 18:22:00,
2013-08-27 14:42:00,89.0,76.0,29.92,SSE,150,2.0,5.0,65,0.00,,,0.00,,2013-08-27 18:42:00,
2013-08-27 14:52:00,89.0,76.0,29.92,ESE,111,2.0,7.0,66,0.00,,,0.00,,2013-08-27 18:52:00,
2013-08-27 15:11:00,89.0,75.0,29.91,WNW,298,2.0,6.0,64,0.00,,,0.00,,2013-08-27 19:11:00,
2013-08-27 15:22:00,89.0,76.0,29.91,SE,132,2.0,5.0,65,0.00,,,0.00,,2013-08-27 19:22:00,
2013-08-27 15:42:00,89.0,77.0,29.90,SW,232,2.0,12.0,67,0.00,,,0.00,,2013-08-27 19:42:00,
2013-08-27 15:52:00,90.0,78.0,29.89,ESE,111,1.0,6.0,67,0.00,,,0.00,,2013-08-27 19:52:00,
2013-08-27 16:11:00,90.0,77.0,29.89,ESE,119,2.0,7.0,66,0.00,,,0.00,,2013-08-27 20:11:00,